Вернуться в каталог

N-1 R/B

АктивенLEO
NORAD 13493·ROCKET BODY·🇯🇵 Japan

Запущен Sep 3, 1982 с Tanegashima Space Center

Loading…

Ближайшие Пролёты (ближайшие 24 часа)

TLE

СвежийSource: Space-Track

Эпоха: Sep 14, 2026, 06:24 UTC

1 13493U 82087B   26257.26724295 -.00000059  00000-0  75651-4 0  9997
2 13493  44.6253 340.3283 0173786 197.7767 183.7525 13.44781127163307

Отслеживайте N-1 R/B в реальном времени с AllMySat

Download on the App Store